DL1VED Weather Reports


Display with metric or nautical units.
time (UTC)temp
F
wind
direction
speed
MPH
gust
MPH
rain 1hr
in
rain 24hr
in
rain mn
in
humidity
%
barometer
mb
20260502181411 72 215 0.0 0.0 0.00 0.00 0.00 34 1014.5
20260502162912 77 239 6.0 9.0 0.00 0.00 0.00 27 1015.0
20260502161412 80 248 5.0 8.0 0.00 0.00 0.00 27 1015.2
20260502151412 82 243 4.0 9.0 0.00 0.00 0.00 29 1015.8
20260502122912 78 260 3.0 13.0 0.00 0.00 0.00 37 1017.8
20260502121412 78 254 10.0 10.0 0.00 0.00 0.00 100 1018.2
20260502115912 78 298 8.0 13.0 0.00 0.00 0.00 100 1018.2
20260502114412 77 254 8.0 9.0 0.00 0.00 0.00 100 1018.3
20260502112912 77 254 7.0 9.0 0.00 0.00 0.00 100 1018.7
20260502111412 77 264 5.0 9.0 0.00 0.00 0.00 35 1018.8
20260502105912 76 240 6.0 10.0 0.00 0.00 0.00 100 1018.8
20260502104412 76 258 4.0 10.0 0.00 0.00 0.00 100 1018.9
20260502102912 76 244 4.0 7.0 0.00 0.00 0.00 100 1019.0
20260502101412 76 243 0.0 5.0 0.00 0.00 0.00 100 1019.2
20260502091412 72 205 0.0 3.0 0.00 0.00 0.00 100 1019.8
20260502071412 62 182 0.0 0.0 0.00 0.00 0.00 52 1020.9
20260502065912 60 181 1.0 2.0 0.00 0.00 0.00 54 1020.8
20260502064418 59 36 0.0 0.0 0.00 0.00 0.00 57 1021.1
20260502064412 59 36 0.0 0.0 0.00 0.00 0.00 57 1021.1
20260502062912 56 36 0.0 0.0 0.00 0.00 0.00 60 1021.1
20260502061412 55 36 0.0 0.0 0.00 0.00 0.00 64 1021.1
20260502055912 53 36 0.0 0.0 0.00 0.00 0.00 100 1021.1
20260502054412 52 36 0.0 0.0 0.00 0.00 0.00 100 1021.1
20260502052912 50 36 0.0 0.0 0.00 0.00 0.00 66 1021.0
20260502051412 49 36 0.0 0.0 0.00 0.00 0.00 100 1021.0
20260502045912 49 36 0.0 0.0 0.00 0.00 0.00 100 1021.1
20260502044412 49 36 0.0 0.0 0.00 0.00 0.00 67 1021.0
20260502042912 49 36 0.0 0.0 0.00 0.00 0.00 100 1020.9
20260502041412 49 36 0.0 0.0 0.00 0.00 0.00 64 1021.0
20260502035912 49 36 0.0 0.0 0.00 0.00 0.00 63 1020.5
20260502034412 49 36 0.0 0.0 0.00 0.00 0.00 100 1020.6
20260502032912 50 36 0.0 0.0 0.00 0.00 0.00 61 1020.8
20260502031412 50 36 0.0 0.0 0.00 0.00 0.00 61 1020.9
20260502025912 50 36 0.0 0.0 0.00 0.00 0.00 61 1020.9
20260502024412 50 36 0.0 0.0 0.00 0.00 0.00 60 1021.1
20260502022912 50 36 0.0 0.0 0.00 0.00 0.00 60 1021.0
20260502021418 50 36 0.0 0.0 0.00 0.00 0.00 59 1021.0
20260502021412 50 36 0.0 0.0 0.00 0.00 0.00 59 1021.0
20260502015912 51 36 0.0 0.0 0.00 0.00 0.00 100 1021.2
20260502014412 51 36 0.0 0.0 0.00 0.00 0.00 58 1021.3
20260502012912 51 36 0.0 0.0 0.00 0.00 0.00 57 1021.1
20260502011412 52 36 0.0 0.0 0.00 0.00 0.00 57 1021.2
20260502005916 52 36 0.0 0.0 0.00 0.00 0.00 55 1021.2
20260502005912 52 36 0.0 0.0 0.00 0.00 0.00 55 1021.2
20260502004419 52 36 0.0 0.0 0.00 0.00 0.00 55 1021.4
20260502004412 52 36 0.0 0.0 0.00 0.00 0.00 55 1021.4
20260502002912 53 36 0.0 0.0 0.00 0.00 0.00 55 1021.4
20260502001412 53 36 0.0 0.0 0.00 0.00 0.00 53 1021.6
20260501235912 53 36 0.0 0.0 0.00 0.00 0.00 54 1021.7
20260501234412 53 36 0.0 0.0 0.00 0.00 0.00 52 1021.8
20260501232912 54 36 0.0 0.0 0.00 0.00 0.00 51 1021.9
20260501231412 54 36 0.0 0.0 0.00 0.00 0.00 50 1022.0
20260501225913 54 36 0.0 0.0 0.00 0.00 0.00 49 1022.0
20260501224413 55 36 0.0 0.0 0.00 0.00 0.00 49 1022.2
20260501222913 55 36 0.0 0.0 0.00 0.00 0.00 49 1022.2
20260501221413 55 36 0.0 0.0 0.00 0.00 0.00 49 1022.2
20260501215913 56 36 0.0 0.0 0.00 0.00 0.00 47 1022.2
20260501214413 56 36 0.0 0.0 0.00 0.00 0.00 47 1022.2
20260501212913 56 36 0.0 0.0 0.00 0.00 0.00 47 1022.2
20260501211413 57 36 0.0 0.0 0.00 0.00 0.00 46 1022.3
20260501205913 57 36 0.0 0.0 0.00 0.00 0.00 45 1022.3
20260501204413 57 36 0.0 0.0 0.00 0.00 0.00 45 1022.5
20260501202913 58 36 0.0 0.0 0.00 0.00 0.00 44 1022.5
20260501201413 59 36 0.0 0.0 0.00 0.00 0.00 42 1022.5
20260501195913 59 36 0.0 0.0 0.00 0.00 0.00 43 1022.3
20260501194413 60 36 0.0 0.0 0.00 0.00 0.00 41 1022.3
20260501192913 61 36 0.0 0.0 0.00 0.00 0.00 40 1022.2
20260501191413 62 36 0.0 0.0 0.00 0.00 0.00 39 1022.2
20260501185913 63 36 0.0 0.0 0.00 0.00 0.00 38 1022.1
20260501184413 65 36 0.0 0.0 0.00 0.00 0.00 36 1022.1
20260501182913 67 43 0.0 0.0 0.00 0.00 0.00 32 1022.0